www.pogodaiklimat.ru

Погода и климат >> Архив погоды >> Япония >> Тоттори


ПОГОДА в Тоттори

  • Прогноз погоды в Тоттори
  • Монитор погоды в Тоттори

АРХИВ ПОГОДЫ в Тоттори

Время (UTC), дата Ветер
(напр.,м/с)
 
Видим.   Явления Облачность Т
(С)
Тd
(С)
f
(%)
Тe
(С)
Тes
(С)
Комфортность P
(гПа)
Po
(гПа)
Тmin
(С)
Tmax
(С)
R
(мм)
R24
(мм)
S
(см)
22 10.06 В 1 н/о н/о +18.4 +15.5 83 +20 +20 1006.7 1004.8
23 10.06 СЗ 1 н/о н/о +20.4 +15.4 73 +24 +24 комфорт 1006.6 1004.8
00 11.06 СЗ 3 20 км 9/9
[Cu med, cong]
+21.2 +16.4 74 +25 +26 комфорт 1006.7 1004.9 +17.1
01 11.06 С 4 н/о н/о +19.8 +16.8 83 +22 +22 комфорт 1006.8 1004.9
02 11.06 СЗ 4 н/о н/о +20.7 +16.1 75 +24 +24 комфорт 1006.7 1004.9
03 11.06 З 2 15 км в посл. час ливневой дождь 10/10
[Cu med, cong]
+20.0 +16.5 80 +23 +23 комфорт 1006.6 1004.8
04 11.06 ЮЗ 2 н/о н/о +19.7 +16.7 83 +23 +23 комфорт 1006.4 1004.5
05 11.06 ЮЗ 2 н/о н/о +19.6 +16.3 81 +22 +22 комфорт 1006.3 1004.4
06 11.06 З 4 15 км слаб. ливневой дождь 10/10
[Cu med, cong]
+19.4 +17.0 86 +21 +21 комфорт 1006.5 1004.6 0.0
07 11.06 З 3 н/о н/о +19.9 +16.0 78 +23 +23 комфорт 1006.2 1004.4
08 11.06 СЗ 1 н/о н/о +19.6 +14.4 72 +22 +22 комфорт 1006.3 1004.4
09 11.06 З 1 20 км {ливн. осадки} 9/9
[Cu med, cong]
+20.0 +14.4 70 +23 +23 комфорт 1006.3 1004.5
10 11.06 ЮВ 2 н/о н/о +19.4 +14.5 73 +22 +22 комфорт 1006.8 1004.9
11 11.06 ЮВ 2 н/о н/о +18.8 +16.1 84 +21 +21 комфорт 1007.0 1005.1
12 11.06 ЮВ 2 20 км {ливн. осадки} 9/9
[Cu hum Ac trans]
+18.4 +15.7 84 +20 +20 1007.3 1005.4 +21.6 0.0
13 11.06 ЮВ 2 н/о н/о +17.4 +15.0 86 +18 +18 1007.7 1005.8
14 11.06 В 1 н/о н/о +16.9 +14.9 88 +18 +18 1007.7 1005.8
15 11.06 В 2 н/о н/о +16.9 +14.6 86 +17 +17 1007.6 1005.7
16 11.06 В 2 н/о н/о +16.8 +14.6 87 +17 +17 1007.7 1005.8
17 11.06 ЮВ 3 н/о н/о +16.5 +14.3 87 +16 +16 1007.8 1005.9
18 11.06 ЮВ 2 20 км 9/9
[Cu med, cong]
+16.2 +14.2 88 +17 +17 1007.9 1006.0
19 11.06 ЮВ 2 н/о н/о +16.2 +14.2 88 +16 +16 1007.9 1006.0
20 11.06 ЮВ 1 н/о н/о +16.4 +14.1 86 +18 +18 1008.1 1006.2
21 11.06 ЮВ 1 20 км слаб. ливневой дождь 9/9
[Cu med, cong]
+16.5 +14.2 86 +18 +18 1008.4 1006.5
22 11.06 В 2 н/о н/о +16.9 +15.1 89 +17 +17 1008.7 1006.8
23 11.06 В 2 н/о н/о +18.1 +15.6 85 +19 +19 1009.1 1007.2
00 12.06 С 3 20 км {ливн. осадки} 9/9
[Cu med, cong]
+21.2 +16.2 73 +25 +26 комфорт 1009.2 1007.4 +16.0 0.5
01 12.06 С 4 н/о н/о +22.5 +15.8 66 +27 +27 душно 1009.4 1007.6
02 12.06 С 3 н/о н/о +23.3 +15.1 60 +27 +27 душно 1009.4 1007.6
03 12.06 СЗ 5 30 км 8/8
[Cu Sc Ac trans]
+23.7 +14.7 57 +26 +29 жарко 1009.7 1007.9
04 12.06 СЗ 4 н/о н/о +22.1 +14.7 63 +25 +25 комфорт 1009.8 1008.0
05 12.06 СЗ 5 н/о н/о +22.6 +14.7 61 +26 +26 жарко 1009.6 1007.8
06 12.06 СЗ 4 25 км в посл. час ливневой дождь 9/9
[Cu med, cong]
+22.4 +14.8 62 +26 +27 жарко 1009.6 1007.8 0.0
07 12.06 СЗ 3 н/о н/о +20.8 +15.4 71 +24 +24 комфорт 1009.5 1007.7
08 12.06 СЗ 3 н/о н/о +21.3 +15.6 70 +25 +25 комфорт 1009.5 1007.7
09 12.06 СЗ 4 20 км {ливн. осадки} 9/9
[Cu med, cong]
+20.7 +16.1 75 +24 +24 комфорт 1009.9 1008.1
10 12.06 С 4 н/о н/о +19.9 +15.6 76 +22 +22 комфорт 1010.6 1008.7
11 12.06 С 2 н/о н/о +19.8 +15.3 75 +23 +23 комфорт 1011.1 1009.2
12 12.06 СВ 2 20 км {ливн. осадки} 8/8
[Cu med, cong]
+19.1 +15.8 81 +21 +21 комфорт 1011.8 1009.9 +25.0 0.0
13 12.06 В 2 н/о н/о +17.7 +15.5 87 +18 +18 1012.3 1010.4
14 12.06 В 2 н/о н/о +17.1 +15.1 88 +17 +17 1012.1 1010.2
15 12.06 ЮВ 2 н/о н/о +16.7 +14.9 89 +17 +17 1012.0 1010.1
16 12.06 ЮВ 2 н/о н/о +16.6 +14.3 86 +17 +17 1012.0 1010.1
17 12.06 В 3 н/о н/о +16.0 +13.9 87 +16 +16 1011.9 1010.0
18 12.06 В 2 15 км {ливн. осадки} ясно +15.1 +13.7 91 +15 +15 1011.7 1009.8 0.0
19 12.06 В 2 н/о н/о +14.5 +12.9 90 +14 +14 1011.9 1010.0
20 12.06 В 2 н/о н/о +14.2 +12.6 90 +14 +14 1012.2 1010.3
21 12.06 В 2 25 км 1/1
[Cu hum]
+15.0 +12.9 87 +15 +16 1012.5 1010.6
22 12.06 В 3 н/о н/о +16.9 +13.1 78 +17 +17 1012.7 1010.8
23 12.06 В 1 н/о н/о +19.3 +14.1 72 +22 +22 комфорт 1013.1 1011.2
00 13.06 В 2 25 км 1/1
[Cu hum]
+21.9 +14.8 64 +25 +37 комфорт 1012.8 1011.0 +14.0 0.0
01 13.06 ЮЗ 2 н/о н/о +23.3 +13.8 55 +27 +27 душно 1012.3 1010.5
02 13.06 СЗ 2 н/о н/о +25.3 +15.9 56 +29 +29 душно 1011.6 1009.8
03 13.06 СЗ 4 35 км 1/1
[Cu hum]
+26.3 +17.4 58 +30 +44 душно 1011.0 1009.2
04 13.06 С 4 н/о н/о +28.0 +16.9 51 +32 +32 душно 1010.4 1008.6
05 13.06 СЗ 4 н/о н/о +28.2 +17.1 51 +32 +32 душно 1009.9 1008.1
06 13.06 СЗ 3 30 км 1/1
[Cu med, cong]
+28.6 +15.2 44 +31 +42 жарко 1009.4 1007.6
07 13.06 З 6 н/о н/о +26.6 +17.9 59 +31 +31 душно 1009.1 1007.3
08 13.06 З 5 н/о н/о +25.0 +17.0 61 +29 +29 душно 1009.2 1007.4
09 13.06 З 4 30 км 1/1
[Cu med, cong]
+23.3 +17.5 70 +29 +30 душно 1009.4 1007.6
10 13.06 З 2 н/о н/о +23.0 +17.7 72 +28 +28 душно 1009.6 1007.8
11 13.06 В 2 н/о н/о +22.0 +17.8 77 +27 +27 душно 1010.3 1008.5
12 13.06 В 2 30 км 4/0
[Ci fib]
+20.7 +17.5 82 +25 +25 комфорт 1011.3 1009.4 +29.4
13 13.06 В 3 н/о н/о +20.1 +16.9 82 +23 +23 комфорт 1011.8 1009.9
14 13.06 ЮВ 3 н/о н/о +20.1 +15.3 74 +23 +23 комфорт 1011.9 1010.0
15 13.06 Ю 3 н/о н/о +20.7 +14.6 68 +24 +24 комфорт 1011.9 1010.0
16 13.06 В 3 н/о н/о +19.3 +15.2 77 +21 +21 комфорт 1011.2 1009.3
17 13.06 ЮВ 4 н/о н/о +21.4 +15.3 68 +25 +25 комфорт 1010.6 1008.8
18 13.06 В 2 30 км 9/0
[Ac trans Ci sp]
+19.9 +15.1 74 +23 +23 комфорт 1010.0 1008.1
19 13.06 Ю 4 н/о н/о +22.2 +15.8 67 +26 +26 душно 1009.8 1008.0
20 13.06 ЮВ 5 н/о н/о +22.0 +15.8 68 +26 +26 душно 1009.6 1007.8
21 13.06 Ю 3 25 км 9/1
[Cu Sc Ci sp]
+21.7 +16.2 71 +25 +26 комфорт 1009.3 1007.5
22 13.06 В 2 н/о н/о +22.5 +16.3 68 +27 +27 душно 1008.9 1007.1
23 13.06 Ю 4 н/о н/о +25.7 +16.3 56 +29 +29 душно 1008.6 1006.8
00 14.06 Ю 4 30 км 9/1
[Cu med, cong Ci sp]
+26.3 +15.7 52 +29 +35 жарко 1008.0 1006.2 +19.1
02 14.06 Ю 6 н/о н/о +27.8 +14.8 45 +30 +30 жарко 1007.3 1005.5
03 14.06 Ю 7 30 км 1/1
[Cu Sc Ci sp]
+27.7 +15.4 47 +31 +37 душно 1007.0 1005.2
04 14.06 Ю 4 н/о н/о +28.1 +16.1 48 +31 +31 душно 1006.1 1004.3
05 14.06 Ю 4 н/о н/о +28.6 +16.2 47 +32 +32 душно 1005.8 1004.0
06 14.06 Ю 6 30 км 10/1
[Cu med, cong Ac trans Ci sp]
+28.5 +16.1 47 +32 +34 душно 1005.2 1003.4
07 14.06 Ю 4 н/о н/о +27.5 +16.8 52 +31 +31 душно 1004.5 1002.7
08 14.06 Ю 4 н/о н/о +26.4 +17.5 58 +31 +31 душно 1004.7 1002.9
09 14.06 Ю 5 15 км слаб. ливневой дождь 10/9
[Cu med, cong Ac As]
+22.5 +19.3 82 +28 +28 душно 1004.9 1003.1
10 14.06 Ю 2 н/о н/о +21.7 +19.1 85 +27 +27 душно 1004.7 1002.9
11 14.06 В 1 н/о н/о +21.6 +19.7 89 +27 +27 душно 1004.5 1002.7
12 14.06 В 1 15 км {ливн. осадки} 10/9
[Cu med, cong Ac As]
+21.5 +19.4 88 +26 +26 душно 1004.3 1002.5 +29.2 0.5
13 14.06 ЮЗ 2 н/о н/о +21.6 +19.0 85 +26 +26 душно 1004.3 1002.5
14 14.06 В 2 н/о н/о +21.2 +19.3 89 +26 +26 душно 1003.4 1001.6
15 14.06 С 1 н/о н/о +21.2 +18.8 86 +26 +26 душно 1002.6 1000.8
16 14.06 СВ 1 н/о н/о +20.4 +18.7 90 +26 +26 душно 1001.4 999.6
17 14.06 Ю 1 н/о н/о +20.0 +18.5 91 +24 +24 комфорт 1000.3 998.5
18 14.06 ЮВ 2 15 км слаб. дождь 10/3 100 м
[Frnb As op]
+19.7 +18.4 92 +23 +23 комфорт 999.7 997.9 0.0
19 14.06 ЮВ 2 н/о н/о +19.0 +17.2 89 +21 +21 комфорт 999.0 997.2
20 14.06 С 2 н/о н/о +18.6 +17.5 93 +20 +20 998.3 996.5
21 14.06 СЗ 3 10 км слаб. дождь 10/6 100 м
[Frnb As op]
+19.3 +17.6 90 +22 +22 комфорт 997.4 995.6
22 14.06 В 3 н/о н/о +19.3 +17.8 91 +22 +22 комфорт 996.7 994.9
23 14.06 З 2 н/о н/о +20.0 +18.0 88 +24 +24 комфорт 996.0 994.2
00 15.06 СВ 1 15 км в посл. час дождь 9/6
[Sc Ac As]
+21.1 +17.9 82 +25 +28 комфорт 995.7 993.9 +18.4 4
01 15.06 СЗ 2 н/о н/о +21.6 +18.6 83 +26 +26 душно 994.8 993.0
02 15.06 Ю 1 н/о н/о +20.5 +18.1 86 +25 +25 комфорт 994.0 992.2
03 15.06 СВ 4 10 км слаб. ливневой дождь 10/10
[Cu med, cong]
+19.6 +17.7 89 +22 +22 комфорт 993.2 991.4
04 15.06 С 2 н/о н/о +19.6 +17.9 90 +23 +23 комфорт 992.6 990.8
05 15.06 С 4 н/о н/о +18.7 +17.0 90 +20 +20 991.9 990.1
06 15.06 СВ 4 10 км слаб. ливневой дождь 10/10
[Cb calv]
+18.4 +16.7 90 +19 +19 991.6 989.8 8
07 15.06 С 4 н/о н/о +18.5 +17.0 91 +19 +19 991.0 989.2
08 15.06 С 6 н/о н/о +18.2 +16.9 92 +18 +18 990.9 989.1
09 15.06 С 4 8000 м ливневой дождь {гроза} 10/10
[Cu med, cong]
+18.2 +17.2 94 +19 +19 991.3 989.5
10 15.06 С 6 н/о н/о +18.2 +16.9 92 +18 +18 991.8 990.0
11 15.06 С 4 н/о н/о +18.1 +17.1 94 +18 +18 992.2 990.4
12 15.06 С 7 6000 м ливневой дождь {гроза} 10/10
[Cu med, cong]
+16.9 +15.6 92 +16 +16 993.4 991.6 +21.7 56
13 15.06 СЗ 4 н/о н/о +17.3 +16.3 94 +17 +17 994.1 992.3
14 15.06 З 4 н/о н/о +17.7 +16.6 93 +18 +18 994.8 993.0
15 15.06 З 4 н/о н/о +17.2 +15.9 92 +17 +17 994.8 993.0
16 15.06 З 4 н/о н/о +17.8 +16.2 90 +18 +18 995.6 993.8
17 15.06 З 4 н/о н/о +18.1 +16.3 89 +18 +18 996.2 994.4
18 15.06 З 5 10 км слаб. ливневой дождь 10/10
[Cu med, cong]
+18.8 +16.8 88 +20 +20 996.8 995.0 14
19 15.06 З 6 н/о н/о +18.7 +16.7 88 +19 +19 997.6 995.8
20 15.06 З 4 н/о н/о +18.8 +16.2 85 +20 +20 998.7 996.9
21 15.06 З 6 15 км слаб. ливневой дождь 10/10
[Cu med, cong]
+19.4 +16.5 83 +21 +21 комфорт 999.4 997.6
22 15.06 З 4 н/о н/о +19.2 +16.4 84 +21 +21 комфорт 1000.4 998.6
23 15.06 СЗ 5 н/о н/о +19.9 +16.2 79 +22 +22 комфорт 1001.4 999.6
00 16.06 З 4 15 км {ливн. осадки} 10/10
[Cu med, cong Ac As]
+19.8 +15.5 76 +22 +22 комфорт 1002.2 1000.4 +16.8 15
01 16.06 З 4 н/о н/о +20.3 +15.7 75 +23 +23 комфорт 1002.8 1001.0
02 16.06 СЗ 4 н/о н/о +19.0 +16.6 86 +20 +20 1003.5 1001.6
03 16.06 З 5 15 км в посл. час ливневой дождь 10/10
[Cu med, cong]
+19.8 +16.8 83 +22 +22 комфорт 1003.9 1002.1
04 16.06 З 6 н/о н/о +20.4 +16.0 76 +23 +23 комфорт 1004.5 1002.7
05 16.06 З 8 н/о н/о +19.4 +16.5 83 +21 +21 комфорт 1005.3 1003.4
06 16.06 СЗ 7 15 км {ливн. осадки} 8/8
[Cu med, cong Ac trans]
+21.2 +16.0 72 +25 +25 комфорт 1005.9 1004.1 2
07 16.06 СЗ 7 н/о н/о +20.6 +14.7 69 +23 +23 комфорт 1006.7 1004.9
08 16.06 СЗ 5 н/о н/о +20.2 +14.8 71 +22 +22 комфорт 1007.3 1005.5
09 16.06 СЗ 6 15 км в посл. час ливневой дождь 9/9
[Cu med, cong]
+19.5 +14.8 74 +21 +21 комфорт 1008.1 1006.2
10 16.06 С 6 н/о н/о +18.8 +14.7 77 +19 +19 1008.8 1006.9
11 16.06 СЗ 4 н/о н/о +18.8 +14.7 77 +20 +20 1009.6 1007.7
12 16.06 С 4 20 км {ливн. осадки} 9/9
[Cu med, cong]
+18.6 +14.3 76 +19 +19 1010.2 1008.3 +21.6 3
13 16.06 СЗ 4 н/о н/о +18.6 +13.7 73 +19 +19 1011.3 1009.4
14 16.06 СЗ 2 н/о н/о +18.4 +14.3 77 +20 +20 1011.4 1009.5
15 16.06 В 2 н/о н/о +17.1 +14.8 86 +18 +18 1011.6 1009.7
16 16.06 ЮВ 2 н/о н/о +16.5 +15.2 92 +17 +17 1011.4 1009.5
17 16.06 В 2 н/о н/о +16.5 +15.2 92 +17 +17 1011.4 1009.5
18 16.06 В 2 20 км слаб. ливневой дождь 9/9
[Cu med, cong]
+16.5 +15.4 93 +17 +17 1012.3 1010.4 0.0
19 16.06 В 2 н/о н/о +16.4 +15.4 94 +17 +17 1012.7 1010.8
20 16.06 В 1 н/о н/о +16.2 +15.2 94 +17 +17 1013.1 1011.2
21 16.06 ЮВ 2 20 км {ливн. осадки} 9/9
[Cu med, cong]
+16.5 +15.4 93 +17 +17 1013.4 1011.5
22 16.06 ЮВ 1 н/о н/о +17.9 +15.9 88 +19 +19 1013.4 1011.5
23 16.06 В 1 н/о н/о +20.1 +15.1 73 +24 +24 комфорт 1013.7 1011.8
00 17.06 ЮЗ 2 25 км {ливн. осадки} 9/8
[Cu med, cong Ci sp]
+19.6 +13.8 69 +22 +24 комфорт 1013.7 1011.8 +16.1 0.0
01 17.06 ЮЗ 2 н/о н/о +20.7 +12.7 60 +24 +24 комфорт 1014.0 1012.1
02 17.06 С 4 н/о н/о +23.7 +15.0 58 +27 +27 жарко 1014.0 1012.2
03 17.06 С 5 30 км 9/1
[Cu med, cong Cc]
+24.0 +14.7 56 +27 +36 жарко 1013.6 1011.8
04 17.06 С 5 н/о н/о +24.3 +14.1 53 +27 +27 жарко 1013.5 1011.7
05 17.06 С 3 н/о н/о +24.9 +14.7 53 +28 +28 жарко 1013.1 1011.3
06 17.06 С 3 30 км 1/1
[Cu med, cong Ac trans Ci sp]
+23.8 +14.0 54 +26 +36 жарко 1012.7 1010.9
07 17.06 СЗ 3 н/о н/о +25.3 +14.8 52 +28 +28 жарко 1012.3 1010.5
08 17.06 СЗ 2 н/о н/о +24.3 +13.8 52 +27 +27 жарко 1012.2 1010.4
09 17.06 З 3 25 км 4/0
[Cc]
+23.8 +13.7 53 +26 +27 жарко 1012.0 1010.2
10 17.06 СЗ 3 н/о н/о +22.2 +13.8 59 +25 +25 комфорт 1012.5 1010.7
11 17.06 В 1 н/о н/о +20.2 +15.0 72 +24 +24 комфорт 1012.9 1011.0
12 17.06 В 1 20 км 9/0
[Ci sp]
+18.7 +15.2 80 +21 +21 комфорт 1013.7 1011.8 +25.5
13 17.06 В 2 н/о н/о +17.8 +14.9 83 +19 +19 1014.1 1012.2
14 17.06 В 3 н/о н/о +17.3 +14.8 85 +17 +17 1013.8 1011.9
15 17.06 В 3 н/о н/о +16.7 +14.5 87 +17 +17 1013.6 1011.7
16 17.06 В 3 н/о н/о +16.4 +14.2 87 +16 +16 1013.1 1011.2
18 17.06 В 3 20 км 9/0
[Cs]
+16.3 +14.1 87 +16 +16 1012.3 1010.4
19 17.06 В 3 н/о н/о +16.1 +14.1 88 +16 +16 1012.4 1010.5
20 17.06 В 2 н/о н/о +16.1 +14.1 88 +16 +16 1012.5 1010.6
21 17.06 В 3 30 км 9/3
[Cu hum Ac trans Ci fib]
+17.1 +14.8 86 +17 +18 1013.1 1011.2
22 17.06 В 2 н/о н/о +19.8 +15.7 77 +23 +23 комфорт 1012.9 1011.0

 

Местоположение метеостанции Тоттори (Япония): широта 35.48 долгота 134.20 высота над уровнем моря 15 м.

В архиве по умолчанию представлена погода в Тоттори за последнюю неделю. Архивные данные за месяц целиком и за предыдущие месяцы, начиная с января 2011 года, Вы можете получить, выбрав интересующий диапазон дат из раскрывающегося списка и нажав кнопку "Ввод!".


*Определитесь, кто Вы:
робот инопланетянин человек

Внимание! Время в таблицах - всемирное. Для получения местного времени необходимо прибавить поправку, которая равна 9 ч.

Смотрите также архив погоды в соседних городах и на ближайших метеорологических станциях:

Погода в Цуяме (Япония) (49 км)
Погода в Тоёоке (Япония) (56 км)
Погода в Йонаго (Япония) (79 км)
Погода в Химедзи (Япония) (84 км)
Погода в Сакаи (Япония) (88 км)
Погода в Окаяме (Япония) (94 км)
Погода в Майдзуру (Япония) (101 км)
Погода в Мацуэ (Япония) (103 км)
Погода в Сайго (Япония) (112 км)
Погода в Кобе (Япония) (126 км)

Пояснения к столбцам:

Ветер - указаны скорость ветра в м/с - средняя за 10 мин, порывы в срок и между сроками (в фигурных скобках) и направление, откуда дует ветер: С - северный, СВ - северо-восточный, В - восточный, ЮВ - юго-восточный, Ю - южный, ЮЗ - юго-западный, З - западный, СЗ - северо-западный.
Видимость - горизонтальная дальность видимости в метрах или километрах. При видимости от 1 до 10 км при отсутствии осадков обычно наблюдается дымка, при ухудшении видимости до 1 км и менее - туман. В сухую погоду видимость может ухудшаться дымом, пылью или мглою.
Явления - указаны атмосферные явления, наблюдавшиеся в срок или в последний час перед сроком; фигурными скобками обозначены явления, наблюдавшиеся между сроками (за 1-3 часа до срока); квадратными скобками обозначены град или гололедные отложения с указанием их диаметра в мм.
Облачность - указаны через наклонную черту общая и нижняя облачность в баллах и высота нижней границы облаков в метрах; квадратными скобками обозначены формы облаков: Ci - перистые, Cs - перисто-слоистые, Cc - перисто-кучевые, Ac - высококучевые, As - высокослоистые, Sc - слоисто-кучевые, Ns - слоисто-дождевые, Cu - кучевые, Cb - кучево-дождевые. Подробнее классификацию облаков см. в Атласе облаков (PDF).
T - Температура воздуха - температура, измеренная на высоте 2 м над землей.
Td - Температура точки росы - температура, при понижении до которой содержащийся в воздухе водяной пар достигнет насыщения.
f - Относительная влажность воздуха - влажноcть воздуха, измеренная на высоте 2 м над землей.
Te - Эффективная температура - температура, которую ощущает одетый по сезону человек в тени. Характеристика душности погоды. При расчете учитывается влияние влажности воздуха и скорости ветра на теплоощущения человека.
Tes - Эффективная температура на солнце - температура, которую ощущает человек, с поправкой на солнечный нагрев. Характеристика знойности погоды. Зависит от высоты солнца над горизонтом, облачности и скорости ветра. Ночью, в пасмурную погоду, а также при ветре 12 м/с и более поправка равна нулю.
P - Атмосферное давление - приведенное к уровню моря атмосферное давление.
Po - Атмосферное давление - измеренное на уровне метеостанции атмосферное давление.
Tmin - Минимальная температура - минимум температуры воздуха на высоте 2 м над землей.
Tmax - Максимальная температура - максимум температуры воздуха на высоте 2 м над землей.
R - Количество осадков - Количество выпавших осадков за период времени, мм. При наведении курсора мыши на число - период времени, за который выпало указанное количество осадков.
R24 - Количество осадков - Количество выпавших осадков за 24 часа, мм.
S - Снежный покров - Высота снежного покрова, см. При наведении курсора мыши на число - состояние снежного покрова и степень покрытия местности в баллах.